sat.trackr.live / text

‹ back to catalog

RASSVET-3 12

NORAD 68371 · 2026-061M

PAYLOAD ACTIVE UNKNOWN

§ Identity

Operator
Country
CIS
Launch date
2026-03-23
Launch site
PLMSC
Launch vehicle
Mass (kg)
RCS (m²)

External: N2YO · Heavens-Above · Gunter

§ Orbital elements

Epoch: 2026-05-25T02:31:01.410816Z

Period
92.21 min
Inclination
82.2927°
Eccentricity
0.0003122
Mean motion
15.61626082 rev/d
Perigee alt
380.8 km
Apogee alt
385.1 km
Semi-major
6,761.1 km
B*
3.5165e-4
RAAN
38.6752°
Arg perigee
282.2576°
Mean anomaly
77.8331°
Rev number
987

§ Raw data

RASSVET-3 121 68371U 26061M   26145.10487744  .00030319  00000+0  35165-3 0  99912 68371  82.2927  38.6752 0003122 282.2576  77.8331 15.61626082  9878

JSON: /api/v1/satellites/68371 · /tle

For live sub-satellite position, see the globe view (requires WebGL).

§ Visibility from observer

Set your observer location to see the next 7 days of passes ≥ 10°. The values pass through the URL so the page stays shareable.

No JS? Fill the form by hand. The geolocation button needs JavaScript.